This is the latest recevied weather packets stored in our database for station/object WE0DX-1. If no packets are shown the sender has not sent any weather packets the latest 10 day(s).
| Time | Temp. | Humidity | Pressure | Rain* | Wind** | Luminosity | Snow |
|---|---|---|---|---|---|---|---|
| 1777998849 | 9.44° C | 95% | 1012.2 hPa | 0 mm | - | 64 W/m² | - |
| 1777998548 | 8.89° C | 94% | 1012.3 hPa | 1.27 mm | - | 71 W/m² | - |
| 1777998243 | 8.89° C | 93% | 1012.2 hPa | 1.27 mm | - | 97 W/m² | - |
| 1777997940 | 8.33° C | 91% | 1012.1 hPa | 0 mm | - | 161 W/m² | - |
| 1777997637 | 8.33° C | 90% | 1012.1 hPa | 0 mm | - | 69 W/m² | - |
| 1777997334 | 8.33° C | 92% | 1012.4 hPa | 0 mm | - | 69 W/m² | - |
| 1777997033 | 8.89° C | 92% | 1012.7 hPa | 0 mm | - | 94 W/m² | - |
| 1777996729 | 8.89° C | 94% | 1012.7 hPa | 0 mm | - | 74 W/m² | - |
| 1777996424 | 8.89° C | 95% | 1012.3 hPa | 0 mm | - | 65 W/m² | - |
| 1777996122 | 8.89° C | 96% | 1012.2 hPa | 0 mm | - | 90 W/m² | - |
| 1777995818 | 8.33° C | 95% | 1012.7 hPa | 0 mm | - | 48 W/m² | - |
| 1777995514 | 8.33° C | 96% | 1012.5 hPa | 0 mm | - | 70 W/m² | - |
| 1777995211 | 8.33° C | 97% | 1012.3 hPa | 1.78 mm | - | 68 W/m² | - |
| 1777994908 | 8.33° C | 97% | 1012 hPa | 0 mm | - | 78 W/m² | - |
| 1777994605 | 8.33° C | 97% | 1012.3 hPa | 1.78 mm | - | 40 W/m² | - |
| 1777994300 | 8.33° C | 96% | 1012.1 hPa | 1.78 mm | - | 38 W/m² | - |
| 1777993997 | 8.33° C | 95% | 1012.4 hPa | 0 mm | - | 37 W/m² | - |
| 1777993694 | 8.33° C | 97% | 1012.1 hPa | 0 mm | - | 40 W/m² | - |
| 1777993391 | 8.33° C | 97% | 1011.6 hPa | 0 mm | - | 47 W/m² | - |
| 1777993091 | 7.78° C | 97% | 1011.8 hPa | 0 mm | - | 49 W/m² | - |
| 1777992790 | 8.33° C | 98% | 1011.7 hPa | 1.27 mm | - | 44 W/m² | - |
| 1777992487 | 8.33° C | 98% | 1011.6 hPa | 1.27 mm | - | 40 W/m² | - |
| 1777992185 | 8.33° C | 98% | 1011.5 hPa | 1.78 mm | - | 46 W/m² | - |
| 1777991881 | 8.33° C | 99% | 1011.7 hPa | 1.27 mm | - | 39 W/m² | - |
| 1777991579 | 8.33° C | 98% | 1011.7 hPa | 3.05 mm | - | 29 W/m² | - |
* Rain latest hour (hover to see other rain measurements)
** Current wind speed in m/s (hover to see current wind gust speed)